Regional Weather Roundup
Issued by NWS Upton, NY

Current Version | Previous Version | Text Only | Print | Product List | Glossary On
Versions: 1 2 3 4 5 6 7 8 9 10 11 12 13 14 15 16 17 18 19 20 21 22 23 24 25 26 27
000
ASUS41 KOKX 151908
RWROKX

REGIONAL WEATHER ROUNDUP
NATIONAL WEATHER SERVICE NEW YORK NY
200 PM EST FRI DEC 15 2017

NOTE: "FAIR" INDICATES FEW OR NO CLOUDS BELOW 12,000 FEET WITH NO
SIGNIFICANT WEATHER AND/OR OBSTRUCTIONS TO VISIBILITY.

NYZ071-072-176-178-NJZ106-104-152000-
NEW YORK CITY METRO AREA

CITY           SKY/WX    TMP DP  RH WIND       PRES   REMARKS
Central Park   CLOUDY    28  12  51 CALM      29.98F
Bronx Bot Gard   N/A     30  14  51 E1        29.98F
Bronx Lehman C   N/A     28  14  54 NE2         N/A
LaGuardia APRT CLOUDY    29   8  41 SW7       29.96F WCI  22
Queens College   N/A     30  14  51 S3          N/A
Kennedy INTL   CLOUDY    28  17  63 CALM      29.98F
Breezy Point     N/A    N/A N/A N/A CALM        N/A
Brooklyn Coll    N/A     28  14  54 SW2         N/A
Staten Island    N/A     27  12  54 W1          N/A
Newark/Liberty FLURRIES  27  11  51 CALM      29.97F
Teterboro      CLOUDY    27  11  51 SE6       29.96F WCI  20
$$

NYZ177-179-078>081-152000-
LONG ISLAND NEW YORK

CITY           SKY/WX    TMP DP  RH WIND       PRES   REMARKS
Jones Beach      N/A    N/A N/A N/A N2          N/A
Wantagh          N/A     30  19  64 NW2         N/A
Matinecock PT    N/A    N/A N/A N/A SW1         N/A
Farmingdale    CLOUDY    29  18  63 N3        29.97F
MacArthur/ISP  FLURRIES  31  20  63 N3        29.96F
Shirley        FLURRIES  31  21  66 CALM      29.97F
Mt Sinai Harb    N/A    N/A N/A N/A CALM        N/A
Westhampton    CLOUDY    30  19  63 NE3       29.98F
East Hampton   PTSUNNY   29  20  69 CALM      29.97F
Southold         N/A     30  18  59 NE3         N/A
Montauk          N/A     31  20  63 CALM      29.99F
$$

NYZ052-065-067-152000-
HUDSON VALLEY

CITY           SKY/WX    TMP DP  RH WIND       PRES   REMARKS
White Plains   FLURRIES  26  12  55 NE3       29.93F
Larchmont Harb   N/A    N/A N/A N/A MISG        N/A
Croton On Huds   N/A    N/A N/A N/A MISG        N/A
Somers           N/A     25  12  58 W2          N/A
Brewster         N/A     25  12  58 SW1         N/A
Newburgh       PTSUNNY   23  14  68 SW6       29.96F WCI  16
Montgomery     CLOUDY    23  11  60 CALM      29.94F
Otisville        N/A     21  14  73 S3          N/A
Warwick          N/A     23  12  63 N3          N/A
Suffern          N/A     25  10  54 N1          N/A
Poughkeepsie   CLOUDY    23  10  57 CALM      29.96F
Albany         CLOUDY    21   8  57 S12       29.96F WCI   9
$$

NJZ001-105-106-008-010-013-015-019>022-104-152000-
NEW JERSEY

CITY           SKY/WX    TMP DP  RH WIND       PRES   REMARKS
Newark/Liberty FLURRIES  27  11  51 CALM      29.97F
Teterboro      CLOUDY    27  11  51 SE6       29.96F WCI  20
Caldwell       CLOUDY    25   9  50 CALM      29.97F
Somerville     CLOUDY    25  12  58 CALM      29.95F
Linden         CLOUDY    27  10  49 CALM      29.97F
Perth Amboy      N/A    N/A N/A N/A W2          N/A
Sussex         CLOUDY    23  13  65 CALM      29.93F
Andover        NOT AVBL
Trenton        LGT SNOW  25  15  66 CALM      29.95F
Millville      CLOUDY    28  14  55 NE8       29.93F WCI  20
Atlantic City  FLURRIES  28  13  53 NE6       29.94F WCI  22
Wrightstown    FLURRIES  26  12  56 N6        29.92F WCI  19
Toms River     FLURRIES  26  13  57 N5        29.95F WCI  20
Belmar         FLURRIES  26  13  57 NW6       29.95F WCI  19
$$

PAZ047>061-062-071-152000-
EASTERN PENNSYLVANIA

CITY           SKY/WX    TMP DP  RH WIND       PRES   REMARKS
Philadelphia   LGT SNOW  26  19  74 N7        29.96F WCI  18
Allentown      LGT SNOW  25  13  60 SW3       29.95F
Scranton       LGT SNOW  19  15  84 CALM      29.89F VSB 1
$$

CTZ002-004>006-009-010-012-RIZ004-006-007-MAZ004-011-015-152000-
SOUTHERN NEW ENGLAND
 IN CT

CITY           SKY/WX    TMP DP  RH WIND       PRES   REMARKS
Bradley INTL   CLOUDY    23  11  60 SE5       29.99F WCI  17
Hartford       CLOUDY    24  11  57 CALM      30.00F
Danbury        CLOUDY    26  15  63 S5        29.95F WCI  20
Wtrbury/Oxford CLOUDY    24  14  65 SW5       29.94F WCI  18
Norwalk Harbor   N/A    N/A N/A N/A N2          N/A
Bridgeport     CLOUDY    29  18  63 VRB3      29.98F
Meriden        CLOUDY    25  11  55 CALM      29.99F
New Haven      CLOUDY    28  17  63 NE7       29.98F WCI  21
Chester        FAIR      25  10  54 CALM      29.96F
Groton         CLOUDY    27  13  55 CALM      29.99F
Wilimantic     CLOUDY    24  11  57 CALM      30.00F

 IN RI

CITY           SKY/WX    TMP DP  RH WIND       PRES   REMARKS
Providence     CLOUDY    24  12  60 CALM      30.00F
Block Island   MOSUNNY   30  19  63 CALM      29.99F
Westerly       CLOUDY    28  17  63 CALM      30.00F
 IN MA

CITY           SKY/WX    TMP DP  RH WIND       PRES   REMARKS
Boston         CLOUDY    26  11  52 S3        29.99F
Worcester      CLOUDY    22   9  57 SW6       29.92F WCI  14
Westfield      CLOUDY    23  12  62 SE5       29.98F WCI  17
Provincetown   MOSUNNY   27  18  69 SW5       30.00  WCI  22
Nantucket      CLOUDY    30  23  75 CALM      29.99F
$$

ANZ330-335-338-340-345-350-353-355-152000-
COASTAL MARINE OBSERVATIONS


STATION/POSITION TIME  SKY/WX   TEMP    WIND        PRES    VSBY  WAVE
                                AIR SEA DIR/SP/G                  HT/PER
                 (UTC)          (F)     (DEG/KT/KT) (MB)    (MI)  (FT/S)
NY HARB ENTRANCE 1750            30 49  250/  4/  6 1015.8          1/ 9
20 S FIRE ISLAND 1750            34 51  260/  8/ 10 1015.9          2/ 9
GREAT SOUTH BAY  NOT AVBL
HUDSON CANYON    1750            39 56   90/  2/  2 1015.1          3/ 9
KINGS POINT      1836            28 42   50/  3/  4 1015.8
EXECUTION ROCKS  1830            29     210/  2/  4   N/A
WESTERN LI SOUND NOT AVBL
CENTRAL LI SOUND NOT AVBL
ROBBINS REEF     1836            26     320/  3/  4 1015.8
$$


>>>>>>>>>>>>>>>>>>>>>>>>>>>> KEY <<<<<<<<<<<<<<<<<<<<<<<<<<<
>                                                          <
>     SKY/WX - Sky Condition/Present Weather               <
>     TMP    - Temperature in Fahrenheit                   <
>     DP     - Dew Point in Fahrenheit                     <
>     RH     - Relative Humidity in Percent                <
>     WIND   - Direction (from) and Speed in MPH           <
>     PRES   - Mean Sea Level Pressure (inches of Hg)      <
>     WCI    - Wind Chill Index                            <
>     VSB    - VISIBILITY IN MILES                         <
>     HX     - HEAT INDEX                                  <
>     TC     - TEMPERATURE IN CELSIUS                      <
>     VRB    - VARIABLE WIND DIRECTION                     <
>                                                          <
>>>>>>>>>>>>>>>>>>>>>>>>>>>> KEY <<<<<<<<<<<<<<<<<<<<<<<<<<<




USA.gov is the U.S. government's official web portal to all federal, state and local government web resources and services.